Regional Weather Roundup
Issued by NWS

Home | Current Version | Previous Version | Graphics & Text | Print | Product List | Glossary On
Versions: 1 2 3 4 5 6 7 8 9 10 11 12 13 14 15 16 17 18 19 20 21 22 23 24 25 26 27 28 29 30 31 32 33 34 35 36 37 38 39 40 41 42 43 44 45 46 47 48 49 50
974
ASUS45 KSLC 230410
RWRUT

UTAH REGIONAL WEATHER ROUNDUP
NATIONAL WEATHER SERVICE SALT LAKE CITY UT
1000 PM MDT SAT JUL 22 2017

UTZ001>011-023>025-230500-

NORTHERN UTAH

CITY           SKY/WX    TMP DP  RH WIND       PRES   REMARKS
BRIGHAM CITY   CLEAR     83  39  20 NE6       30.07R
HILL AFB       PTCLDY    85  38  18 NW5       30.10
LOGAN          CLEAR     74  49  41 N7        30.10R
OGDEN          PTCLDY    81  40  23 N3        30.06R
SALT LAKE CITY MOCLDY    85  51  31 SE6       30.04R
TOOELE VALLEY  MOCLDY    73  55  53 SE7       30.06S
WENDOVER       MOCLDY    85  40  20 NE6       30.05R
HEBER CITY     CLOUDY    68  48  49 E5        30.17R
WEST JORDAN    MOCLDY    83  57  41 CALM      30.09R

$$

UTZ011>015-024>027-230500-

CENTRAL/NORTHEAST UTAH

CITY           SKY/WX    TMP DP  RH WIND       PRES   REMARKS
PROVO AIRPORT  CLOUDY    78  60  53 S8        30.08R
MOAB/CANYONLAN MOCLDY    84  52  33 S3        30.04R
DELTA          CLOUDY    81  39  22 NE3       30.09R
PRICE          MOCLDY    74  47  38 N6        30.19R
RICHFIELD      CLEAR     75  48  38 CALM      30.17R
ROOSEVELT      CLOUDY    72  54  53 CALM      30.15R
VERNAL         CLOUDY    78  46  32 NW8       30.14R

$$

UTZ013>016-019>022-027-230500-

SOUTHERN UTAH

CITY           SKY/WX    TMP DP  RH WIND       PRES   REMARKS
BRYCE CANYON   CLOUDY    71  49  45 W15       30.35R
CEDAR CITY     CLOUDY    78  49  35 E7        30.19R
MILFORD        LGT RAIN  80  49  33 NE13G28   30.16R
ST GEORGE      CLOUDY    93  55  27 SE3       29.91R HX  91
HANKSVILLE     MOCLDY    86  43  22 NW7       30.08R
KANAB          CLEAR     77  57  50 N6        30.13R
BLANDING       MOCLDY    68  55  62 CALM      30.29R

$$

REGIONAL REPORTS     COLORADO/ARIZONA

CITY           SKY/WX    TMP DP  RH WIND       PRES   REMARKS
CRAIG, CO      CLOUDY    61  48  62 CALM      30.24R
GRAND JUNCTION CLEAR     82  51  34 SE10      30.09R
RIFLE, CO      CLOUDY    81  36  19 SW6       30.16R
MONTROSE, CO   CLOUDY    74  48  39 SE9       30.22R
CORTEZ, CO     CLEAR     68  53  58 CALM      30.22R
COLORADO CITY    N/A     77  70  78 CALM      30.11S
PAGE, AZ       PTCLDY    90  51  26 E13       30.02R
GRAND CANYON   PTCLDY    69  46  43 CALM      30.24R
KINGMAN, AZ    LGT RAIN  81  59  47 S16G32    30.01R
FLAGSTAFF, AZ  MOCLDY    67  57  70 CALM      30.28R

$$

REGIONAL REPORTS    NEVADA/IDAHO/WYOMING

CITY           SKY/WX    TMP DP  RH WIND       PRES   REMARKS
LAS VEGAS, NV  PTCLDY   103  52  18 E6        29.81R HX 100
ELY, NY        CLOUDY    74  44  34 VRB7      30.25R
ELKO, NV       PTCLDY    86  27  11 NE16G26   30.10R
POCATELLO, ID  CLEAR     70  33  25 S9        30.12R
BURLEY, ID     CLEAR     69  50  50 S6        30.08R
FORT BRIDGER,    N/A     73  27  18 W3        30.33R
EVANSTON, WY   CLOUDY    73  31  21 NE7       30.32R
ROCK SPRINGS,  CLOUDY    76  23  14 SE10      30.26R
KEMMERER, WY     N/A    N/A N/A N/A NW9       30.33R

$$




USA.gov is the U.S. government's official web portal to all federal, state and local government web resources and services.